Time,TemperatureF,DewpointF,PressureIn,WindDirection,WindDirectionDegrees,WindSpeedMPH,WindSpeedGustMPH,Humidity,HourlyPrecipIn,Conditions,Clouds,dailyrainin,SoftwareType,DateUTC
2013-05-13 00:01:00,82.4,26.7,27.70,WNW,302,0.0,0.0,13,0.00,,CLR,0.00,VWS V14.01,2013-05-13 07:01:00,
2013-05-13 00:06:00,82.2,26.5,27.70,NNW,335,0.0,0.0,13,0.00,,CLR,0.00,VWS V14.01,2013-05-13 07:06:00,
2013-05-13 00:11:00,82.0,26.4,27.70,WNW,288,0.0,0.0,13,0.00,,CLR,0.00,VWS V14.01,2013-05-13 07:11:00,
2013-05-13 00:17:00,82.0,26.4,27.70,WNW,296,0.0,0.0,13,0.00,,CLR,0.00,VWS V14.01,2013-05-13 07:17:00,
2013-05-13 00:22:00,82.0,26.4,27.70,WNW,294,0.0,0.0,13,0.00,,CLR,0.00,VWS V14.01,2013-05-13 07:22:00,
2013-05-13 00:27:00,82.0,26.4,27.70,NW,317,0.0,0.0,13,0.00,,CLR,0.00,VWS V14.01,2013-05-13 07:27:00,
2013-05-13 00:32:00,81.9,26.2,27.70,WNW,293,0.0,0.0,13,0.00,,CLR,0.00,VWS V14.01,2013-05-13 07:32:00,
2013-05-13 00:37:00,81.7,26.1,27.70,WNW,296,0.0,0.0,13,0.00,,CLR,0.00,VWS V14.01,2013-05-13 07:37:00,
2013-05-13 00:42:00,81.7,26.1,27.70,WNW,284,0.0,0.0,13,0.00,,CLR,0.00,VWS V14.01,2013-05-13 07:42:00,
2013-05-13 00:47:00,81.5,26.0,27.70,NW,316,0.0,0.0,13,0.00,,CLR,0.00,VWS V14.01,2013-05-13 07:47:00,
2013-05-13 00:52:00,81.3,25.8,27.70,WNW,294,0.0,0.0,13,0.00,,CLR,0.00,VWS V14.01,2013-05-13 07:52:00,
2013-05-13 00:57:00,81.0,25.5,27.70,NW,305,0.0,0.0,13,0.00,,CLR,0.00,VWS V14.01,2013-05-13 07:57:00,
2013-05-13 01:02:00,80.8,25.4,27.70,NW,310,0.0,0.0,13,0.00,,CLR,0.00,VWS V14.01,2013-05-13 08:02:00,
2013-05-13 01:07:00,80.8,25.4,27.70,NW,313,0.0,0.0,13,0.00,,CLR,0.00,VWS V14.01,2013-05-13 08:07:00,
2013-05-13 01:12:00,80.8,25.4,27.70,WNW,289,0.0,0.0,13,0.00,,CLR,0.00,VWS V14.01,2013-05-13 08:12:00,
2013-05-13 01:17:00,80.8,25.4,27.70,WNW,300,0.0,0.0,13,0.00,,CLR,0.00,VWS V14.01,2013-05-13 08:17:00,
2013-05-13 01:22:00,80.8,25.4,27.70,WNW,292,0.0,0.0,13,0.00,,CLR,0.00,VWS V14.01,2013-05-13 08:22:00,
2013-05-13 01:27:00,80.6,25.3,27.70,WNW,291,0.0,0.0,13,0.00,,CLR,0.00,VWS V14.01,2013-05-13 08:27:00,
2013-05-13 01:32:00,80.6,25.3,27.70,NW,306,0.0,0.0,13,0.00,,CLR,0.00,VWS V14.01,2013-05-13 08:32:00,
2013-05-13 01:37:00,80.4,26.9,27.70,WNW,284,0.0,0.0,14,0.00,,CLR,0.00,VWS V14.01,2013-05-13 08:37:00,
2013-05-13 01:42:00,80.1,26.6,27.70,WSW,256,0.0,0.0,14,0.00,,CLR,0.00,VWS V14.01,2013-05-13 08:42:00,
2013-05-13 01:47:00,79.7,26.3,27.70,WSW,257,0.0,0.0,14,0.00,,CLR,0.00,VWS V14.01,2013-05-13 08:47:00,
2013-05-13 01:52:00,79.2,25.9,27.70,WSW,256,0.0,0.0,14,0.00,,CLR,0.00,VWS V14.01,2013-05-13 08:52:00,
2013-05-13 01:57:00,78.4,25.3,27.70,WSW,254,0.0,0.0,14,0.00,,CLR,0.00,VWS V14.01,2013-05-13 08:57:00,
2013-05-13 02:02:00,77.7,24.8,27.70,WSW,255,0.0,0.0,14,0.00,,CLR,0.00,VWS V14.01,2013-05-13 09:02:00,
2013-05-13 02:07:00,77.4,24.5,27.70,West,263,0.0,0.0,14,0.00,,CLR,0.00,VWS V14.01,2013-05-13 09:07:00,
2013-05-13 02:12:00,76.8,24.1,27.70,West,263,0.0,0.0,14,0.00,,CLR,0.00,VWS V14.01,2013-05-13 09:12:00,
2013-05-13 02:17:00,76.5,23.8,27.70,West,263,0.0,0.0,14,0.00,,CLR,0.00,VWS V14.01,2013-05-13 09:17:00,
2013-05-13 02:22:00,76.1,23.5,27.70,West,263,0.0,0.0,14,0.00,,CLR,0.00,VWS V14.01,2013-05-13 09:22:00,
2013-05-13 02:27:00,75.6,23.1,27.70,West,263,0.0,0.0,14,0.00,,CLR,0.00,VWS V14.01,2013-05-13 09:27:00,
2013-05-13 02:32:00,74.8,24.1,27.70,SE,131,0.0,0.0,15,0.00,,CLR,0.00,VWS V14.01,2013-05-13 09:32:00,
2013-05-13 02:37:00,74.5,23.8,27.70,ESE,109,0.0,0.0,15,0.00,,CLR,0.00,VWS V14.01,2013-05-13 09:37:00,
2013-05-13 02:42:00,74.1,23.6,27.70,ESE,106,0.0,0.0,15,0.00,,CLR,0.00,VWS V14.01,2013-05-13 09:42:00,
2013-05-13 02:47:00,73.8,23.3,27.70,ESE,106,0.0,0.0,15,0.00,,CLR,0.00,VWS V14.01,2013-05-13 09:47:00,
2013-05-13 02:52:00,73.8,23.3,27.70,WNW,299,0.0,0.0,15,0.00,,CLR,0.00,VWS V14.01,2013-05-13 09:52:00,
2013-05-13 02:57:00,73.8,23.3,27.70,WNW,298,0.0,0.0,15,0.00,,CLR,0.00,VWS V14.01,2013-05-13 09:57:00,
2013-05-13 03:02:00,73.4,23.0,27.70,SE,132,0.0,0.0,15,0.00,,CLR,0.00,VWS V14.01,2013-05-13 10:02:00,
2013-05-13 03:07:00,72.9,22.5,27.70,ESE,116,0.0,0.0,15,0.00,,CLR,0.00,VWS V14.01,2013-05-13 10:07:00,
2013-05-13 03:12:00,72.9,22.5,27.70,North,353,0.0,0.0,15,0.00,,CLR,0.00,VWS V14.01,2013-05-13 10:12:00,
2013-05-13 03:17:00,72.9,22.5,27.70,NNW,341,0.0,0.0,15,0.00,,CLR,0.00,VWS V14.01,2013-05-13 10:17:00,
2013-05-13 03:22:00,72.7,22.4,27.70,ENE,76,0.0,0.0,15,0.00,,CLR,0.00,VWS V14.01,2013-05-13 10:22:00,
2013-05-13 03:27:00,72.3,22.1,27.70,ESE,105,0.0,0.0,15,0.00,,CLR,0.00,VWS V14.01,2013-05-13 10:27:00,
2013-05-13 03:32:00,72.0,21.8,27.70,NE,45,0.0,0.0,15,0.00,,CLR,0.00,VWS V14.01,2013-05-13 10:32:00,
2013-05-13 03:37:00,71.8,21.7,27.70,NE,45,0.0,0.0,15,0.00,,CLR,0.00,VWS V14.01,2013-05-13 10:37:00,
2013-05-13 03:42:00,71.4,22.9,27.70,WNW,288,0.0,0.0,16,0.00,,CLR,0.00,VWS V14.01,2013-05-13 10:42:00,
2013-05-13 03:47:00,71.6,21.5,27.70,WNW,302,0.0,0.0,15,0.00,,CLR,0.00,VWS V14.01,2013-05-13 10:47:00,
2013-05-13 03:52:00,72.3,22.1,27.70,WNW,302,0.0,0.0,15,0.00,,CLR,0.00,VWS V14.01,2013-05-13 10:52:00,
2013-05-13 03:57:00,72.5,22.3,27.70,NW,319,0.0,0.0,15,0.00,,CLR,0.00,VWS V14.01,2013-05-13 10:57:00,
2013-05-13 04:02:00,72.9,22.5,27.70,NW,313,0.0,0.0,15,0.00,,CLR,0.00,VWS V14.01,2013-05-13 11:02:00,
2013-05-13 04:07:00,73.2,22.8,27.70,NNW,348,0.0,0.0,15,0.00,,CLR,0.00,VWS V14.01,2013-05-13 11:07:00,
2013-05-13 04:12:00,73.4,23.0,27.70,NW,316,0.0,0.0,15,0.00,,CLR,0.00,VWS V14.01,2013-05-13 11:12:00,
2013-05-13 04:17:00,73.6,23.1,27.70,NW,321,0.0,0.0,15,0.00,,CLR,0.00,VWS V14.01,2013-05-13 11:17:00,
2013-05-13 04:22:00,74.7,24.0,27.70,NW,324,0.0,0.0,15,0.00,,CLR,0.00,VWS V14.01,2013-05-13 11:22:00,
2013-05-13 04:27:00,75.7,23.2,27.70,NW,314,0.0,0.0,14,0.00,,CLR,0.00,VWS V14.01,2013-05-13 11:27:00,
2013-05-13 04:32:00,76.1,23.5,27.70,NW,317,0.0,0.0,14,0.00,,CLR,0.00,VWS V14.01,2013-05-13 11:32:00,
2013-05-13 04:37:00,75.6,23.1,27.70,WSW,254,0.0,0.0,14,0.00,,CLR,0.00,VWS V14.01,2013-05-13 11:37:00,
2013-05-13 04:42:00,75.0,24.3,27.70,NW,320,0.0,0.0,15,0.00,,CLR,0.00,VWS V14.01,2013-05-13 11:42:00,
2013-05-13 04:47:00,74.8,24.1,27.70,NNW,329,0.0,0.0,15,0.00,,CLR,0.00,VWS V14.01,2013-05-13 11:47:00,
2013-05-13 04:52:00,74.3,23.7,27.70,NNW,330,0.0,0.0,15,0.00,,CLR,0.00,VWS V14.01,2013-05-13 11:52:00,
2013-05-13 04:57:00,73.6,23.1,27.70,NNW,330,0.0,0.0,15,0.00,,CLR,0.00,VWS V14.01,2013-05-13 11:57:00,
2013-05-13 05:02:00,73.0,22.7,27.70,NNW,330,0.0,0.0,15,0.00,,CLR,0.00,VWS V14.01,2013-05-13 12:02:00,
2013-05-13 05:07:00,72.9,22.5,27.70,WNW,301,0.0,0.0,15,0.00,,CLR,0.00,VWS V14.01,2013-05-13 12:07:00,
2013-05-13 05:12:00,72.9,22.5,27.70,NNW,348,0.0,0.0,15,0.00,,CLR,0.00,VWS V14.01,2013-05-13 12:12:00,
2013-05-13 05:17:00,72.5,22.3,27.70,North,349,0.0,0.0,15,0.00,,CLR,0.00,VWS V14.01,2013-05-13 12:17:00,
2013-05-13 05:22:00,72.0,21.8,27.70,North,349,0.0,0.0,15,0.00,,CLR,0.00,VWS V14.01,2013-05-13 12:22:00,
2013-05-13 05:27:00,71.6,21.5,27.73,WNW,293,0.0,0.0,15,0.00,,CLR,0.00,VWS V14.01,2013-05-13 12:27:00,
2013-05-13 05:32:00,71.6,21.5,27.73,NW,318,0.0,0.0,15,0.00,,CLR,0.00,VWS V14.01,2013-05-13 12:32:00,
2013-05-13 05:37:00,71.6,21.5,27.73,WNW,299,0.0,0.0,15,0.00,,CLR,0.00,VWS V14.01,2013-05-13 12:37:00,
2013-05-13 05:42:00,71.8,21.7,27.73,NW,316,0.0,0.0,15,0.00,,CLR,0.00,VWS V14.01,2013-05-13 12:42:00,
2013-05-13 05:47:00,71.8,21.7,27.73,NW,314,0.0,0.0,15,0.00,,CLR,0.00,VWS V14.01,2013-05-13 12:47:00,
2013-05-13 05:52:00,72.0,21.8,27.73,NW,313,0.0,0.0,15,0.00,,CLR,0.00,VWS V14.01,2013-05-13 12:52:00,
2013-05-13 05:57:00,72.0,21.8,27.73,NW,313,0.0,0.0,15,0.00,,CLR,0.00,VWS V14.01,2013-05-13 12:57:00,
2013-05-13 06:02:00,71.8,21.7,27.73,NW,314,0.0,0.0,15,0.00,,CLR,0.00,VWS V14.01,2013-05-13 13:02:00,
2013-05-13 06:07:00,71.8,21.7,27.73,WNW,295,0.0,0.0,15,0.00,,CLR,0.00,VWS V14.01,2013-05-13 13:07:00,
2013-05-13 06:12:00,71.8,21.7,27.73,NW,325,0.0,0.0,15,0.00,,CLR,0.00,VWS V14.01,2013-05-13 13:12:00,
2013-05-13 06:17:00,72.1,22.0,27.73,NW,307,0.0,0.0,15,0.00,,CLR,0.00,VWS V14.01,2013-05-13 13:17:00,
2013-05-13 06:22:00,72.7,22.4,27.73,WNW,293,0.0,0.0,15,0.00,,CLR,0.00,VWS V14.01,2013-05-13 13:22:00,
2013-05-13 06:27:00,73.2,22.8,27.73,WNW,291,0.0,0.0,15,0.00,,CLR,0.00,VWS V14.01,2013-05-13 13:27:00,
2013-05-13 06:32:00,73.4,23.0,27.73,WNW,293,0.0,0.0,15,0.00,,CLR,0.00,VWS V14.01,2013-05-13 13:32:00,
2013-05-13 06:37:00,73.6,23.1,27.73,WNW,299,0.0,0.0,15,0.00,,CLR,0.00,VWS V14.01,2013-05-13 13:37:00,
2013-05-13 06:42:00,73.9,23.4,27.73,WNW,292,0.0,0.0,15,0.00,,CLR,0.00,VWS V14.01,2013-05-13 13:42:00,
2013-05-13 06:47:00,74.3,23.7,27.73,NW,306,0.0,0.0,15,0.00,,CLR,0.00,VWS V14.01,2013-05-13 13:47:00,
2013-05-13 06:52:00,74.3,23.7,27.73,WNW,300,0.0,0.0,15,0.00,,CLR,0.00,VWS V14.01,2013-05-13 13:52:00,
2013-05-13 06:57:00,74.5,23.8,27.73,WNW,296,0.0,0.0,15,0.00,,CLR,0.00,VWS V14.01,2013-05-13 13:57:00,
2013-05-13 07:02:00,74.7,24.0,27.73,WNW,294,0.0,0.0,15,0.00,,CLR,0.00,VWS V14.01,2013-05-13 14:02:00,
2013-05-13 07:07:00,74.8,24.1,27.73,WNW,295,0.0,0.0,15,0.00,,CLR,0.00,VWS V14.01,2013-05-13 14:07:00,
2013-05-13 07:12:00,75.0,24.3,27.76,WNW,293,0.0,0.0,15,0.00,,CLR,0.00,VWS V14.01,2013-05-13 14:12:00,
2013-05-13 07:17:00,75.4,22.9,27.76,WNW,294,0.0,0.0,14,0.00,,CLR,0.00,VWS V14.01,2013-05-13 14:17:00,
2013-05-13 07:22:00,75.7,23.2,27.76,WNW,289,0.0,0.0,14,0.00,,CLR,0.00,VWS V14.01,2013-05-13 14:22:00,
2013-05-13 07:27:00,76.1,23.5,27.76,WNW,288,0.0,0.0,14,0.00,,CLR,0.00,VWS V14.01,2013-05-13 14:27:00,
2013-05-13 07:32:00,76.6,23.9,27.76,WNW,287,0.0,0.0,14,0.00,,CLR,0.00,VWS V14.01,2013-05-13 14:32:00,
2013-05-13 07:37:00,77.2,24.3,27.76,WNW,287,0.0,0.0,14,0.00,,CLR,0.00,VWS V14.01,2013-05-13 14:37:00,
2013-05-13 07:42:00,77.7,24.8,27.76,WNW,293,0.0,0.0,14,0.00,,CLR,0.00,VWS V14.01,2013-05-13 14:42:00,
2013-05-13 07:47:00,78.3,25.2,27.76,WNW,294,0.0,0.0,14,0.00,,CLR,0.00,VWS V14.01,2013-05-13 14:47:00,
2013-05-13 07:52:00,78.8,25.6,27.76,WNW,293,0.0,0.0,14,0.00,,CLR,0.00,VWS V14.01,2013-05-13 14:52:00,
2013-05-13 07:57:00,79.5,26.2,27.76,WNW,296,0.0,0.0,14,0.00,,CLR,0.00,VWS V14.01,2013-05-13 14:57:00,
2013-05-13 08:02:00,80.1,26.6,27.76,WNW,296,0.0,0.0,14,0.00,,CLR,0.00,VWS V14.01,2013-05-13 15:02:00,
2013-05-13 08:07:00,80.8,25.4,27.76,WNW,296,0.0,0.0,13,0.00,,CLR,0.00,VWS V14.01,2013-05-13 15:07:00,
2013-05-13 08:12:00,81.3,25.8,27.76,WNW,296,0.0,0.0,13,0.00,,CLR,0.00,VWS V14.01,2013-05-13 15:12:00,
2013-05-13 08:17:00,81.7,26.1,27.76,WNW,298,0.0,0.0,13,0.00,,CLR,0.00,VWS V14.01,2013-05-13 15:17:00,
2013-05-13 08:22:00,82.2,26.5,27.76,WNW,298,0.0,0.0,13,0.00,,CLR,0.00,VWS V14.01,2013-05-13 15:22:00,
2013-05-13 08:27:00,82.8,27.0,27.76,WNW,297,0.0,0.0,13,0.00,,CLR,0.00,VWS V14.01,2013-05-13 15:27:00,
2013-05-13 08:32:00,83.3,27.4,27.76,West,263,0.0,0.0,13,0.00,,CLR,0.00,VWS V14.01,2013-05-13 15:32:00,
2013-05-13 08:37:00,84.0,27.9,27.76,WSW,251,0.0,0.0,13,0.00,,CLR,0.00,VWS V14.01,2013-05-13 15:37:00,
2013-05-13 08:42:00,84.2,26.1,27.76,WNW,290,0.0,0.0,12,0.00,,CLR,0.00,VWS V14.01,2013-05-13 15:42:00,
2013-05-13 08:47:00,84.7,26.6,27.76,WNW,290,0.0,0.0,12,0.00,,CLR,0.00,VWS V14.01,2013-05-13 15:47:00,
2013-05-13 08:52:00,84.9,26.7,27.76,WSW,258,0.0,0.0,12,0.00,,CLR,0.00,VWS V14.01,2013-05-13 15:52:00,
2013-05-13 08:57:00,85.6,27.3,27.76,WSW,257,0.0,0.0,12,0.00,,CLR,0.00,VWS V14.01,2013-05-13 15:57:00,
2013-05-13 09:02:00,86.2,27.7,27.76,West,263,0.0,0.0,12,0.00,,CLR,0.00,VWS V14.01,2013-05-13 16:02:00,
2013-05-13 09:07:00,86.5,28.0,27.76,West,263,0.0,0.0,12,0.00,,CLR,0.00,VWS V14.01,2013-05-13 16:07:00,
2013-05-13 09:12:00,87.1,28.4,27.76,South,184,0.0,0.0,12,0.00,,CLR,0.00,VWS V14.01,2013-05-13 16:12:00,
2013-05-13 09:17:00,88.0,29.1,27.76,South,187,0.0,0.0,12,0.00,,CLR,0.00,VWS V14.01,2013-05-13 16:17:00,
2013-05-13 09:22:00,88.7,29.6,27.76,South,170,0.0,0.0,12,0.00,,CLR,0.00,VWS V14.01,2013-05-13 16:22:00,
2013-05-13 09:27:00,89.6,28.2,27.76,SSE,163,0.0,0.0,11,0.00,,CLR,0.00,VWS V14.01,2013-05-13 16:27:00,
2013-05-13 09:32:00,90.1,28.6,27.76,SE,143,0.0,0.0,11,0.00,,CLR,0.00,VWS V14.01,2013-05-13 16:32:00,
2013-05-13 09:37:00,90.7,29.0,27.76,SE,133,0.0,0.0,11,0.00,,CLR,0.00,VWS V14.01,2013-05-13 16:37:00,
2013-05-13 09:42:00,91.2,29.4,27.76,ESE,111,0.0,0.0,11,0.00,,CLR,0.00,VWS V14.01,2013-05-13 16:42:00,
2013-05-13 09:47:00,91.4,29.6,27.76,East,101,0.0,0.0,11,0.00,,CLR,0.00,VWS V14.01,2013-05-13 16:47:00,
2013-05-13 09:52:00,91.6,29.7,27.76,ESE,111,0.0,0.0,11,0.00,,CLR,0.00,VWS V14.01,2013-05-13 16:52:00,
2013-05-13 09:57:00,91.8,29.9,27.76,SE,136,0.0,0.0,11,0.00,,CLR,0.00,VWS V14.01,2013-05-13 16:57:00,
2013-05-13 10:02:00,92.1,30.1,27.76,SSE,154,0.0,0.0,11,0.00,,CLR,0.00,VWS V14.01,2013-05-13 17:02:00,
2013-05-13 10:07:00,92.5,30.4,27.76,ESE,104,0.0,0.0,11,0.00,,CLR,0.00,VWS V14.01,2013-05-13 17:07:00,
2013-05-13 10:12:00,92.8,30.7,27.76,ESE,122,0.0,0.0,11,0.00,,CLR,0.00,VWS V14.01,2013-05-13 17:12:00,
2013-05-13 10:17:00,93.0,30.8,27.76,ESE,118,0.0,0.0,11,0.00,,CLR,0.00,VWS V14.01,2013-05-13 17:17:00,
2013-05-13 10:22:00,93.0,30.8,27.76,NNE,32,0.0,0.0,11,0.00,,CLR,0.00,VWS V14.01,2013-05-13 17:22:00,
2013-05-13 10:27:00,92.8,30.7,27.76,NNE,23,0.0,0.0,11,0.00,,CLR,0.00,VWS V14.01,2013-05-13 17:27:00,
2013-05-13 10:32:00,93.0,30.8,27.76,SE,142,0.0,0.0,11,0.00,,CLR,0.00,VWS V14.01,2013-05-13 17:32:00,
2013-05-13 10:37:00,93.4,28.8,27.76,SSE,163,0.0,0.0,10,0.00,,CLR,0.00,VWS V14.01,2013-05-13 17:37:00,
2013-05-13 10:42:00,93.7,29.0,27.76,SSE,165,0.0,0.0,10,0.00,,CLR,0.00,VWS V14.01,2013-05-13 17:42:00,
2013-05-13 10:47:00,93.9,29.1,27.76,SSE,163,0.0,0.0,10,0.00,,CLR,0.00,VWS V14.01,2013-05-13 17:47:00,
2013-05-13 10:52:00,93.9,29.1,27.76,SSE,162,0.0,0.0,10,0.00,,CLR,0.00,VWS V14.01,2013-05-13 17:52:00,
2013-05-13 10:57:00,93.9,29.1,27.76,South,173,0.0,0.0,10,0.00,,CLR,0.00,VWS V14.01,2013-05-13 17:57:00,
2013-05-13 11:02:00,93.7,29.0,27.73,South,173,0.0,0.0,10,0.00,,CLR,0.00,VWS V14.01,2013-05-13 18:02:00,
2013-05-13 11:07:00,93.9,29.1,27.73,SW,235,0.0,0.0,10,0.00,,CLR,0.00,VWS V14.01,2013-05-13 18:07:00,
2013-05-13 11:12:00,94.3,29.4,27.73,SSE,163,0.0,0.0,10,0.00,,CLR,0.00,VWS V14.01,2013-05-13 18:12:00,
2013-05-13 11:17:00,94.6,29.7,27.73,SE,146,0.0,0.0,10,0.00,,CLR,0.00,VWS V14.01,2013-05-13 18:17:00,
2013-05-13 11:22:00,94.6,29.7,27.73,WSW,253,0.0,0.0,10,0.00,,CLR,0.00,VWS V14.01,2013-05-13 18:22:00,
2013-05-13 11:27:00,94.6,29.7,27.73,NW,315,0.0,0.0,10,0.00,,CLR,0.00,VWS V14.01,2013-05-13 18:27:00,
2013-05-13 11:32:00,94.6,29.7,27.73,West,260,0.0,0.0,10,0.00,,CLR,0.00,VWS V14.01,2013-05-13 18:32:00,
2013-05-13 11:37:00,94.6,29.7,27.73,WNW,303,0.0,0.0,10,0.00,,CLR,0.00,VWS V14.01,2013-05-13 18:37:00,
2013-05-13 11:42:00,95.0,30.0,27.73,North,357,0.0,0.0,10,0.00,,CLR,0.00,VWS V14.01,2013-05-13 18:42:00,
2013-05-13 11:47:00,95.9,30.6,27.73,SSE,167,0.0,0.0,10,0.00,,CLR,0.00,VWS V14.01,2013-05-13 18:47:00,
2013-05-13 11:52:00,96.6,31.2,27.73,SE,138,0.0,0.0,10,0.00,,CLR,0.00,VWS V14.01,2013-05-13 18:52:00,
2013-05-13 11:57:00,97.3,31.7,27.73,ENE,60,0.0,0.0,10,0.00,,CLR,0.00,VWS V14.01,2013-05-13 18:57:00,
2013-05-13 12:02:00,97.5,31.9,27.73,South,186,0.0,0.0,10,0.00,,CLR,0.00,VWS V14.01,2013-05-13 19:02:00,
2013-05-13 12:07:00,97.9,32.1,27.73,ENE,73,0.0,0.0,10,0.00,,CLR,0.00,VWS V14.01,2013-05-13 19:07:00,
2013-05-13 12:12:00,98.1,32.3,27.73,ESE,118,2.2,2.7,10,0.00,,CLR,0.00,VWS V14.01,2013-05-13 19:12:00,
2013-05-13 12:17:00,98.2,32.4,27.70,SE,130,3.1,3.1,10,0.00,,CLR,0.00,VWS V14.01,2013-05-13 19:17:00,
2013-05-13 12:22:00,98.6,30.1,27.70,ESE,106,0.0,0.0,9,0.00,,CLR,0.00,VWS V14.01,2013-05-13 19:22:00,
2013-05-13 12:27:00,99.0,30.4,27.70,ESE,122,0.0,2.7,9,0.00,,CLR,0.00,VWS V14.01,2013-05-13 19:27:00,
2013-05-13 12:32:00,99.5,30.8,27.70,SSE,158,2.2,2.2,9,0.00,,CLR,0.00,VWS V14.01,2013-05-13 19:32:00,
2013-05-13 12:37:00,99.9,31.0,27.70,SSE,165,0.0,0.0,9,0.00,,CLR,0.00,VWS V14.01,2013-05-13 19:37:00,
2013-05-13 12:42:00,100.2,31.3,27.70,South,190,0.0,0.0,9,0.00,,CLR,0.00,VWS V14.01,2013-05-13 19:42:00,
2013-05-13 12:47:00,100.2,31.3,27.70,ESE,118,0.0,0.0,9,0.00,,CLR,0.00,VWS V14.01,2013-05-13 19:47:00,
2013-05-13 12:52:00,100.4,31.4,27.70,ENE,75,3.1,3.1,9,0.00,,CLR,0.00,VWS V14.01,2013-05-13 19:52:00,
2013-05-13 12:57:00,100.8,31.7,27.70,SSE,148,0.0,0.0,9,0.00,,CLR,0.00,VWS V14.01,2013-05-13 19:57:00,
2013-05-13 13:02:00,100.8,31.7,27.70,SSW,212,0.0,2.2,9,0.00,,CLR,0.00,VWS V14.01,2013-05-13 20:02:00,
2013-05-13 13:07:00,100.9,31.8,27.70,SE,128,2.7,2.7,9,0.00,,CLR,0.00,VWS V14.01,2013-05-13 20:07:00,
2013-05-13 13:12:00,101.5,32.2,27.70,ESE,118,3.1,3.1,9,0.00,,CLR,0.00,VWS V14.01,2013-05-13 20:12:00,
2013-05-13 13:17:00,101.5,32.2,27.70,ESE,119,2.7,2.7,9,0.00,,CLR,0.00,VWS V14.01,2013-05-13 20:17:00,
2013-05-13 13:22:00,101.3,32.1,27.70,SSW,211,0.0,0.0,9,0.00,,CLR,0.00,VWS V14.01,2013-05-13 20:22:00,
2013-05-13 13:27:00,101.3,32.1,27.70,ESE,119,2.2,2.2,9,0.00,,CLR,0.00,VWS V14.01,2013-05-13 20:27:00,
2013-05-13 13:32:00,101.5,32.2,27.67,SSE,148,3.1,3.1,9,0.00,,CLR,0.00,VWS V14.01,2013-05-13 20:32:00,
2013-05-13 13:37:00,101.7,32.4,27.67,SE,135,0.0,0.0,9,0.00,,CLR,0.00,VWS V14.01,2013-05-13 20:37:00,
2013-05-13 13:42:00,101.8,32.5,27.67,East,87,0.0,0.0,9,0.00,,CLR,0.00,VWS V14.01,2013-05-13 20:42:00,
2013-05-13 13:47:00,101.3,32.1,27.67,SSE,151,0.0,0.0,9,0.00,,CLR,0.00,VWS V14.01,2013-05-13 20:47:00,
2013-05-13 13:52:00,101.1,32.0,27.67,SSW,212,0.0,0.0,9,0.00,,CLR,0.00,VWS V14.01,2013-05-13 20:52:00,
2013-05-13 13:57:00,101.1,32.0,27.67,SE,142,0.0,2.2,9,0.00,,CLR,0.00,VWS V14.01,2013-05-13 20:57:00,
2013-05-13 14:02:00,101.5,32.2,27.67,South,172,0.0,0.0,9,0.00,,CLR,0.00,VWS V14.01,2013-05-13 21:02:00,
2013-05-13 14:07:00,101.5,32.2,27.67,East,97,2.7,2.7,9,0.00,,CLR,0.00,VWS V14.01,2013-05-13 21:07:00,
2013-05-13 14:12:00,101.5,32.2,27.67,ENE,60,0.0,2.2,9,0.00,,CLR,0.00,VWS V14.01,2013-05-13 21:12:00,
2013-05-13 14:17:00,101.5,32.2,27.67,SE,130,0.0,0.0,9,0.00,,CLR,0.00,VWS V14.01,2013-05-13 21:17:00,
2013-05-13 14:22:00,101.3,32.1,27.67,SW,228,2.2,2.2,9,0.00,,CLR,0.00,VWS V14.01,2013-05-13 21:22:00,
2013-05-13 14:27:00,101.7,32.4,27.67,SE,139,2.2,3.1,9,0.00,,CLR,0.00,VWS V14.01,2013-05-13 21:27:00,
2013-05-13 14:32:00,101.7,32.4,27.67,SSW,193,0.0,0.0,9,0.00,,CLR,0.00,VWS V14.01,2013-05-13 21:32:00,
2013-05-13 14:37:00,101.5,32.2,27.67,SW,222,0.0,0.0,9,0.00,,CLR,0.00,VWS V14.01,2013-05-13 21:37:00,
2013-05-13 14:42:00,101.7,32.4,27.67,SE,145,10.5,10.5,9,0.00,,CLR,0.00,VWS V14.01,2013-05-13 21:42:00,
2013-05-13 14:47:00,101.8,32.5,27.64,SE,136,0.0,3.6,9,0.00,,CLR,0.00,VWS V14.01,2013-05-13 21:47:00,
2013-05-13 14:52:00,101.8,32.5,27.64,SSE,163,0.0,0.0,9,0.00,,CLR,0.00,VWS V14.01,2013-05-13 21:52:00,
2013-05-13 14:57:00,101.8,32.5,27.64,South,183,0.0,0.0,9,0.00,,CLR,0.00,VWS V14.01,2013-05-13 21:57:00,
2013-05-13 15:02:00,101.7,32.4,27.64,SSE,149,0.0,0.0,9,0.00,,CLR,0.00,VWS V14.01,2013-05-13 22:02:00,
2013-05-13 15:07:00,101.5,32.2,27.64,SE,133,0.0,0.0,9,0.00,,CLR,0.00,VWS V14.01,2013-05-13 22:07:00,
2013-05-13 15:12:00,100.9,31.8,27.64,North,1,0.0,0.0,9,0.00,,CLR,0.00,VWS V14.01,2013-05-13 22:12:00,
2013-05-13 15:17:00,100.6,31.6,27.64,ESE,110,2.7,2.7,9,0.00,,CLR,0.00,VWS V14.01,2013-05-13 22:17:00,
2013-05-13 15:22:00,100.6,31.6,27.64,SSE,155,0.0,2.2,9,0.00,,CLR,0.00,VWS V14.01,2013-05-13 22:22:00,
2013-05-13 15:27:00,100.9,31.8,27.64,NE,56,0.0,0.0,9,0.00,,CLR,0.00,VWS V14.01,2013-05-13 22:27:00,
2013-05-13 15:32:00,101.3,32.1,27.64,NNE,29,0.0,0.0,9,0.00,,CLR,0.00,VWS V14.01,2013-05-13 22:32:00,
2013-05-13 15:37:00,101.5,32.2,27.64,East,88,0.0,0.0,9,0.00,,CLR,0.00,VWS V14.01,2013-05-13 22:37:00,
2013-05-13 15:42:00,101.5,32.2,27.64,South,172,0.0,0.0,9,0.00,,CLR,0.00,VWS V14.01,2013-05-13 22:42:00,
2013-05-13 15:47:00,101.8,32.5,27.61,South,172,2.2,2.2,9,0.00,,CLR,0.00,VWS V14.01,2013-05-13 22:47:00,
2013-05-13 15:52:00,101.8,32.5,27.61,ESE,103,0.0,0.0,9,0.00,,CLR,0.00,VWS V14.01,2013-05-13 22:52:00,
2013-05-13 15:57:00,101.5,32.2,27.61,SSE,167,0.0,2.2,9,0.00,,CLR,0.00,VWS V14.01,2013-05-13 22:57:00,
2013-05-13 16:02:00,101.3,32.1,27.61,South,171,0.0,0.0,9,0.00,,CLR,0.00,VWS V14.01,2013-05-13 23:02:00,
2013-05-13 16:07:00,101.5,32.2,27.61,SSE,150,3.6,3.6,9,0.00,,CLR,0.00,VWS V14.01,2013-05-13 23:07:00,
2013-05-13 16:12:00,101.7,32.4,27.61,South,171,0.0,0.0,9,0.00,,CLR,0.00,VWS V14.01,2013-05-13 23:12:00,
2013-05-13 16:17:00,101.5,32.2,27.61,SE,125,2.7,2.7,9,0.00,,CLR,0.00,VWS V14.01,2013-05-13 23:17:00,
2013-05-13 16:22:00,101.5,32.2,27.61,SSE,149,2.7,2.7,9,0.00,,CLR,0.00,VWS V14.01,2013-05-13 23:22:00,
2013-05-13 16:27:00,101.3,32.1,27.61,East,94,2.2,2.2,9,0.00,,CLR,0.00,VWS V14.01,2013-05-13 23:27:00,
2013-05-13 16:32:00,101.3,32.1,27.61,ESE,116,0.0,2.2,9,0.00,,CLR,0.00,VWS V14.01,2013-05-13 23:32:00,
2013-05-13 16:37:00,101.3,32.1,27.61,SSW,210,0.0,3.1,9,0.00,,CLR,0.00,VWS V14.01,2013-05-13 23:37:00,
2013-05-13 16:42:00,102.0,32.6,27.61,SW,221,0.0,0.0,9,0.00,,CLR,0.00,VWS V14.01,2013-05-13 23:42:00,
2013-05-13 16:47:00,102.4,30.0,27.58,SSE,159,2.2,2.7,8,0.00,,CLR,0.00,VWS V14.01,2013-05-13 23:47:00,
2013-05-13 16:52:00,101.8,32.5,27.58,SE,130,3.1,3.1,9,0.00,,CLR,0.00,VWS V14.01,2013-05-13 23:52:00,
2013-05-13 16:57:00,101.7,32.4,27.58,South,171,0.0,2.2,9,0.00,,CLR,0.00,VWS V14.01,2013-05-13 23:57:00,
2013-05-13 17:02:00,101.8,32.5,27.58,SSE,157,0.0,0.0,9,0.00,,CLR,0.00,VWS V14.01,2013-05-14 00:02:00,
2013-05-13 17:07:00,102.2,29.9,27.58,WSW,237,0.0,0.0,8,0.00,,CLR,0.00,VWS V14.01,2013-05-14 00:07:00,
2013-05-13 17:12:00,102.4,30.0,27.58,SSW,206,2.2,2.2,8,0.00,,CLR,0.00,VWS V14.01,2013-05-14 00:12:00,
2013-05-13 17:17:00,102.0,32.6,27.58,SSE,148,0.0,3.1,9,0.00,,CLR,0.00,VWS V14.01,2013-05-14 00:17:00,
2013-05-13 17:22:00,101.3,32.1,27.58,SSE,164,0.0,2.2,9,0.00,,CLR,0.00,VWS V14.01,2013-05-14 00:22:00,
2013-05-13 17:27:00,100.6,31.6,27.58,East,83,0.0,2.7,9,0.00,,CLR,0.00,VWS V14.01,2013-05-14 00:27:00,
2013-05-13 17:32:00,100.4,31.4,27.58,SE,128,2.2,2.2,9,0.00,,CLR,0.00,VWS V14.01,2013-05-14 00:32:00,
2013-05-13 17:37:00,100.4,31.4,27.58,SSE,158,0.0,0.0,9,0.00,,CLR,0.00,VWS V14.01,2013-05-14 00:37:00,
2013-05-13 17:42:00,100.2,31.3,27.58,ESE,120,2.2,2.2,9,0.00,,CLR,0.00,VWS V14.01,2013-05-14 00:42:00,
2013-05-13 17:47:00,100.0,31.2,27.58,South,173,0.0,0.0,9,0.00,,CLR,0.00,VWS V14.01,2013-05-14 00:47:00,
2013-05-13 17:52:00,99.7,30.9,27.58,SE,145,0.0,0.0,9,0.00,,CLR,0.00,VWS V14.01,2013-05-14 00:52:00,
2013-05-13 17:57:00,100.0,31.2,27.58,SW,221,3.6,3.6,9,0.00,,CLR,0.00,VWS V14.01,2013-05-14 00:57:00,
2013-05-13 18:02:00,100.4,31.4,27.58,SSE,167,0.0,0.0,9,0.00,,CLR,0.00,VWS V14.01,2013-05-14 01:02:00,
2013-05-13 18:07:00,100.6,31.6,27.58,SSW,210,0.0,0.0,9,0.00,,CLR,0.00,VWS V14.01,2013-05-14 01:07:00,
2013-05-13 18:12:00,100.8,31.7,27.58,SW,226,0.0,3.6,9,0.00,,CLR,0.00,VWS V14.01,2013-05-14 01:12:00,
2013-05-13 18:17:00,100.8,31.7,27.58,SW,226,0.0,0.0,9,0.00,,CLR,0.00,VWS V14.01,2013-05-14 01:17:00,
2013-05-13 18:22:00,100.9,31.8,27.58,SW,217,0.0,2.7,9,0.00,,CLR,0.00,VWS V14.01,2013-05-14 01:22:00,
2013-05-13 18:27:00,100.9,31.8,27.58,SW,226,0.0,0.0,9,0.00,,CLR,0.00,VWS V14.01,2013-05-14 01:27:00,
2013-05-13 18:32:00,100.8,31.7,27.58,SSE,161,0.0,0.0,9,0.00,,CLR,0.00,VWS V14.01,2013-05-14 01:32:00,
2013-05-13 18:37:00,100.6,31.6,27.58,SW,232,0.0,8.7,9,0.00,,CLR,0.00,VWS V14.01,2013-05-14 01:37:00,
2013-05-13 18:42:00,100.4,31.4,27.58,West,262,0.0,0.0,9,0.00,,CLR,0.00,VWS V14.01,2013-05-14 01:42:00,
2013-05-13 18:47:00,100.2,31.3,27.58,SSW,195,0.0,0.0,9,0.00,,CLR,0.00,VWS V14.01,2013-05-14 01:47:00,
2013-05-13 18:52:00,100.0,31.2,27.58,SW,233,2.2,2.2,9,0.00,,CLR,0.00,VWS V14.01,2013-05-14 01:52:00,
2013-05-13 18:57:00,99.7,30.9,27.58,SSW,204,0.0,0.0,9,0.00,,CLR,0.00,VWS V14.01,2013-05-14 01:57:00,
2013-05-13 19:02:00,99.3,30.6,27.58,SSW,211,0.0,0.0,9,0.00,,CLR,0.00,VWS V14.01,2013-05-14 02:02:00,
2013-05-13 19:07:00,98.8,30.2,27.58,SSW,208,0.0,0.0,9,0.00,,CLR,0.00,VWS V14.01,2013-05-14 02:07:00,
2013-05-13 19:12:00,98.4,32.5,27.58,WSW,255,0.0,0.0,10,0.00,,CLR,0.00,VWS V14.01,2013-05-14 02:12:00,
2013-05-13 19:17:00,98.2,32.4,27.58,WSW,239,0.0,0.0,10,0.00,,CLR,0.00,VWS V14.01,2013-05-14 02:17:00,
2013-05-13 19:22:00,97.9,32.1,27.58,SW,229,0.0,0.0,10,0.00,,CLR,0.00,VWS V14.01,2013-05-14 02:22:00,
2013-05-13 19:27:00,97.3,31.7,27.58,SSW,204,0.0,0.0,10,0.00,,CLR,0.00,VWS V14.01,2013-05-14 02:27:00,
2013-05-13 19:32:00,96.6,31.2,27.58,SSW,209,0.0,0.0,10,0.00,,CLR,0.00,VWS V14.01,2013-05-14 02:32:00,
2013-05-13 19:37:00,95.9,30.6,27.58,SSW,205,0.0,0.0,10,0.00,,CLR,0.00,VWS V14.01,2013-05-14 02:37:00,
2013-05-13 19:42:00,95.4,30.2,27.58,SW,236,0.0,0.0,10,0.00,,CLR,0.00,VWS V14.01,2013-05-14 02:42:00,
2013-05-13 19:47:00,95.2,30.1,27.58,WSW,238,0.0,0.0,10,0.00,,CLR,0.00,VWS V14.01,2013-05-14 02:47:00,
2013-05-13 19:52:00,94.8,29.8,27.58,ESE,113,0.0,0.0,10,0.00,,CLR,0.00,VWS V14.01,2013-05-14 02:52:00,
2013-05-13 19:57:00,94.6,29.7,27.58,SSE,158,0.0,0.0,10,0.00,,CLR,0.00,VWS V14.01,2013-05-14 02:57:00,
2013-05-13 20:02:00,94.5,29.6,27.58,SSE,157,0.0,0.0,10,0.00,,CLR,0.00,VWS V14.01,2013-05-14 03:02:00,
2013-05-13 20:07:00,94.3,29.4,27.58,SSE,158,0.0,0.0,10,0.00,,CLR,0.00,VWS V14.01,2013-05-14 03:07:00,
2013-05-13 20:12:00,93.7,29.0,27.58,SSE,166,0.0,0.0,10,0.00,,CLR,0.00,VWS V14.01,2013-05-14 03:12:00,
2013-05-13 20:17:00,93.2,28.6,27.58,SSE,166,0.0,0.0,10,0.00,,CLR,0.00,VWS V14.01,2013-05-14 03:17:00,
2013-05-13 20:22:00,92.7,30.5,27.58,SSE,164,0.0,0.0,11,0.00,,CLR,0.00,VWS V14.01,2013-05-14 03:22:00,
2013-05-13 20:27:00,92.3,30.3,27.58,SSE,164,0.0,0.0,11,0.00,,CLR,0.00,VWS V14.01,2013-05-14 03:27:00,
2013-05-13 20:32:00,91.8,29.9,27.58,SSE,150,0.0,0.0,11,0.00,,CLR,0.00,VWS V14.01,2013-05-14 03:32:00,
2013-05-13 20:37:00,91.4,29.6,27.58,SE,127,0.0,0.0,11,0.00,,CLR,0.00,VWS V14.01,2013-05-14 03:37:00,
2013-05-13 20:42:00,91.2,29.4,27.58,SE,129,2.7,3.6,11,0.00,,CLR,0.00,VWS V14.01,2013-05-14 03:42:00,
2013-05-13 20:47:00,91.6,29.7,27.58,ESE,108,0.0,0.0,11,0.00,,CLR,0.00,VWS V14.01,2013-05-14 03:47:00,
2013-05-13 20:52:00,91.8,29.9,27.58,ESE,110,0.0,0.0,11,0.00,,CLR,0.00,VWS V14.01,2013-05-14 03:52:00,
2013-05-13 20:57:00,91.8,29.9,27.58,SSE,160,0.0,0.0,11,0.00,,CLR,0.00,VWS V14.01,2013-05-14 03:57:00,
2013-05-13 21:01:00,91.6,29.7,27.58,SE,134,0.0,0.0,11,0.00,,CLR,0.00,VWS V14.01,2013-05-14 04:01:00,
2013-05-13 21:06:00,91.2,29.4,27.58,SE,135,0.0,0.0,11,0.00,,CLR,0.00,VWS V14.01,2013-05-14 04:06:00,
2013-05-13 21:11:00,90.7,29.0,27.58,SE,135,0.0,0.0,11,0.00,,CLR,0.00,VWS V14.01,2013-05-14 04:11:00,
2013-05-13 21:16:00,90.3,28.7,27.58,SE,135,0.0,0.0,11,0.00,,CLR,0.00,VWS V14.01,2013-05-14 04:16:00,
2013-05-13 21:21:00,89.8,28.3,27.58,SE,137,0.0,0.0,11,0.00,,CLR,0.00,VWS V14.01,2013-05-14 04:21:00,
2013-05-13 21:26:00,89.6,28.2,27.58,SE,138,0.0,0.0,11,0.00,,CLR,0.00,VWS V14.01,2013-05-14 04:26:00,
2013-05-13 21:31:00,89.2,30.0,27.58,SE,138,0.0,0.0,12,0.00,,CLR,0.00,VWS V14.01,2013-05-14 04:31:00,
2013-05-13 21:36:00,89.1,29.9,27.58,SE,138,0.0,0.0,12,0.00,,CLR,0.00,VWS V14.01,2013-05-14 04:36:00,
2013-05-13 21:41:00,88.7,29.6,27.58,SE,138,0.0,0.0,12,0.00,,CLR,0.00,VWS V14.01,2013-05-14 04:41:00,
2013-05-13 21:46:00,88.0,29.1,27.58,SE,138,0.0,0.0,12,0.00,,CLR,0.00,VWS V14.01,2013-05-14 04:46:00,
2013-05-13 21:51:00,87.6,28.8,27.58,SE,138,0.0,0.0,12,0.00,,CLR,0.00,VWS V14.01,2013-05-14 04:51:00,
2013-05-13 21:56:00,87.4,28.6,27.58,SE,142,0.0,0.0,12,0.00,,CLR,0.00,VWS V14.01,2013-05-14 04:56:00,
2013-05-13 22:01:00,87.4,28.6,27.58,SE,142,0.0,0.0,12,0.00,,CLR,0.00,VWS V14.01,2013-05-14 05:01:00,
2013-05-13 22:06:00,87.1,28.4,27.58,SE,142,0.0,0.0,12,0.00,,CLR,0.00,VWS V14.01,2013-05-14 05:06:00,
2013-05-13 22:11:00,86.7,28.1,27.58,SE,142,0.0,0.0,12,0.00,,CLR,0.00,VWS V14.01,2013-05-14 05:11:00,
2013-05-13 22:16:00,86.0,27.5,27.58,SE,142,0.0,0.0,12,0.00,,CLR,0.00,VWS V14.01,2013-05-14 05:16:00,
2013-05-13 22:21:00,85.3,27.0,27.58,SE,142,0.0,0.0,12,0.00,,CLR,0.00,VWS V14.01,2013-05-14 05:21:00,
2013-05-13 22:26:00,84.6,26.4,27.58,SE,142,0.0,0.0,12,0.00,,CLR,0.00,VWS V14.01,2013-05-14 05:26:00,
2013-05-13 22:31:00,84.4,26.3,27.58,SE,146,0.0,0.0,12,0.00,,CLR,0.00,VWS V14.01,2013-05-14 05:31:00,
2013-05-13 22:36:00,84.6,26.4,27.58,NW,306,0.0,0.0,12,0.00,,CLR,0.00,VWS V14.01,2013-05-14 05:36:00,
2013-05-13 22:41:00,85.1,26.8,27.58,NW,309,0.0,0.0,12,0.00,,CLR,0.00,VWS V14.01,2013-05-14 05:41:00,
2013-05-13 22:46:00,85.6,27.3,27.58,WNW,284,0.0,0.0,12,0.00,,CLR,0.00,VWS V14.01,2013-05-14 05:46:00,
2013-05-13 22:51:00,85.6,27.3,27.58,WNW,290,0.0,0.0,12,0.00,,CLR,0.00,VWS V14.01,2013-05-14 05:51:00,
2013-05-13 22:56:00,85.8,27.4,27.58,WNW,302,0.0,0.0,12,0.00,,CLR,0.00,VWS V14.01,2013-05-14 05:56:00,
2013-05-13 23:01:00,86.0,27.5,27.58,NW,315,0.0,0.0,12,0.00,,CLR,0.00,VWS V14.01,2013-05-14 06:01:00,
2013-05-13 23:06:00,86.0,27.5,27.58,WNW,286,0.0,0.0,12,0.00,,CLR,0.00,VWS V14.01,2013-05-14 06:06:00,
2013-05-13 23:11:00,85.6,27.3,27.58,WNW,286,0.0,0.0,12,0.00,,CLR,0.00,VWS V14.01,2013-05-14 06:11:00,
2013-05-13 23:16:00,85.1,26.8,27.58,WNW,287,0.0,0.0,12,0.00,,CLR,0.00,VWS V14.01,2013-05-14 06:16:00,
2013-05-13 23:21:00,84.0,27.9,27.58,WNW,287,0.0,0.0,13,0.00,,CLR,0.00,VWS V14.01,2013-05-14 06:21:00,
2013-05-13 23:26:00,83.1,27.2,27.58,WNW,287,0.0,0.0,13,0.00,,CLR,0.00,VWS V14.01,2013-05-14 06:26:00,
2013-05-13 23:31:00,81.9,26.2,27.58,SSW,206,0.0,0.0,13,0.00,,CLR,0.00,VWS V14.01,2013-05-14 06:31:00,
2013-05-13 23:36:00,81.1,25.7,27.58,SSW,207,0.0,0.0,13,0.00,,CLR,0.00,VWS V14.01,2013-05-14 06:36:00,
2013-05-13 23:41:00,80.6,25.3,27.58,SSW,207,0.0,0.0,13,0.00,,CLR,0.00,VWS V14.01,2013-05-14 06:41:00,
2013-05-13 23:46:00,80.2,26.8,27.58,SSW,207,0.0,0.0,14,0.00,,CLR,0.00,VWS V14.01,2013-05-14 06:46:00,
2013-05-13 23:51:00,80.1,26.6,27.58,SSW,207,0.0,0.0,14,0.00,,CLR,0.00,VWS V14.01,2013-05-14 06:51:00,
2013-05-13 23:56:00,79.9,26.5,27.58,SSW,207,0.0,0.0,14,0.00,,CLR,0.00,VWS V14.01,2013-05-14 06:56:00,